SWA1552 KDEN-KSLC

Flight info

Callsign SWA1552
Flight time 1h 3m
Altitude 34000
Route ZIMMR4 CHNGY EKR RACER JAZZZ1
Aircraft B38M/M-SADE2E3GHIJ4J7P2RWZ/LB1D1

Departure

Time 2026-05-06 22:17
Airport Denver International Airport (KDEN)

Arrival

Time 2026-05-06 23:20
Airport Salt Lake City International Airport (KSLC)
Time Latitude Longitude Altitude Speed Heading
2026-05-06 21:42 39.86247 -104.66849 5379 ft 0 kts 360°
2026-05-06 22:03 39.86233 -104.66849 5376 ft 4 kts
2026-05-06 22:03 39.86207 -104.66855 5376 ft 4 kts 21°
2026-05-06 22:03 39.86188 -104.66872 5374 ft 4 kts 68°
2026-05-06 22:04 39.86186 -104.66884 5374 ft 1 kts 90°
2026-05-06 22:06 39.86186 -104.66881 5374 ft 2 kts 90°
2026-05-06 22:07 39.86185 -104.66845 5376 ft 0 kts 90°
2026-05-06 22:07 39.86185 -104.66843 5376 ft 0 kts 90°
2026-05-06 22:10 39.86185 -104.66842 5379 ft 1 kts 90°
2026-05-06 22:10 39.86185 -104.66789 5379 ft 10 kts 90°
2026-05-06 22:10 39.86178 -104.66699 5376 ft 8 kts 121°
2026-05-06 22:11 39.86157 -104.66683 5379 ft 2 kts 182°
2026-05-06 22:11 39.86109 -104.66715 5379 ft 15 kts 223°
2026-05-06 22:11 39.86062 -104.66894 5381 ft 27 kts 267°
2026-05-06 22:11 39.86062 -104.67151 5381 ft 30 kts 271°
2026-05-06 22:12 39.86064 -104.67423 5381 ft 30 kts 270°
2026-05-06 22:12 39.86068 -104.67697 5379 ft 30 kts 273°
2026-05-06 22:12 39.86068 -104.67973 5381 ft 30 kts 271°
2026-05-06 22:12 39.86046 -104.68176 5381 ft 23 kts 253°
2026-05-06 22:13 39.86009 -104.68365 5376 ft 24 kts 227°
2026-05-06 22:13 39.85847 -104.68397 5374 ft 25 kts 180°
2026-05-06 22:13 39.85639 -104.68398 5375 ft 34 kts 180°
2026-05-06 22:13 39.85400 -104.68401 5383 ft 34 kts 181°
2026-05-06 22:14 39.85228 -104.68408 5381 ft 7 kts 202°
2026-05-06 22:14 39.85212 -104.68442 5381 ft 5 kts 258°
2026-05-06 22:14 39.85205 -104.68521 5377 ft 15 kts 267°
2026-05-06 22:14 39.85201 -104.68738 5367 ft 32 kts 269°
2026-05-06 22:15 39.85198 -104.68944 5361 ft 35 kts 269°
2026-05-06 22:15 39.85198 -104.69261 5349 ft 32 kts 272°
2026-05-06 22:15 39.85200 -104.69486 5343 ft 17 kts 270°
2026-05-06 22:15 39.85202 -104.69579 5343 ft 11 kts 271°
2026-05-06 22:16 39.85243 -104.69658 5341 ft 8 kts 354°
2026-05-06 22:16 39.85290 -104.69658 5341 ft 14 kts
2026-05-06 22:16 39.85604 -104.69654 5342 ft 81 kts
2026-05-06 22:16 39.86396 -104.69644 5336 ft 145 kts
2026-05-06 22:17 39.87568 -104.69625 5505 ft 183 kts
2026-05-06 22:17 39.88859 -104.69571 6175 ft 197 kts
2026-05-06 22:17 39.90300 -104.69580 6934 ft 210 kts 360°
2026-05-06 22:17 39.91789 -104.69822 7520 ft 229 kts 337°
2026-05-06 22:18 39.92994 -104.71241 8046 ft 248 kts 296°
2026-05-06 22:18 39.93272 -104.73474 8763 ft 256 kts 264°
2026-05-06 22:18 39.93149 -104.75802 9644 ft 261 kts 269°
2026-05-06 22:18 39.93152 -104.78168 9825 ft 261 kts 270°
2026-05-06 22:19 39.93162 -104.80533 9947 ft 261 kts 270°
2026-05-06 22:19 39.93174 -104.82899 9989 ft 261 kts 270°
2026-05-06 22:19 39.93186 -104.85274 10060 ft 264 kts 270°
2026-05-06 22:19 39.93198 -104.87673 10756 ft 263 kts 270°
2026-05-06 22:20 39.93213 -104.90118 11508 ft 277 kts 271°
2026-05-06 22:20 39.93271 -104.92645 12269 ft 285 kts 272°
2026-05-06 22:20 39.93331 -104.95218 13320 ft 285 kts 272°
2026-05-06 22:20 39.93389 -104.97804 14308 ft 286 kts 272°
2026-05-06 22:21 39.93445 -105.00370 15152 ft 289 kts 272°
2026-05-06 22:21 39.93507 -105.03017 16013 ft 294 kts 273°
2026-05-06 22:21 39.93568 -105.05692 16851 ft 297 kts 273°
2026-05-06 22:21 39.93629 -105.08406 17650 ft 301 kts 273°
2026-05-06 22:22 39.93691 -105.11153 18450 ft 306 kts 274°
2026-05-06 22:22 39.93751 -105.13869 19111 ft 309 kts 274°
2026-05-06 22:22 39.93813 -105.16688 19785 ft 313 kts 274°
2026-05-06 22:22 39.93875 -105.19544 20437 ft 317 kts 274°
2026-05-06 22:23 39.93970 -105.22431 21079 ft 320 kts 278°
2026-05-06 22:23 39.94211 -105.25339 21697 ft 325 kts 278°
2026-05-06 22:23 39.94443 -105.28282 22321 ft 329 kts 279°
2026-05-06 22:23 39.94671 -105.31271 22908 ft 333 kts 279°
2026-05-06 22:24 39.94894 -105.34250 23477 ft 337 kts 279°
2026-05-06 22:24 39.95120 -105.37306 24010 ft 341 kts 279°
2026-05-06 22:24 39.95362 -105.40421 24286 ft 352 kts 279°
2026-05-06 22:24 39.95618 -105.43664 24342 ft 369 kts 279°
2026-05-06 22:25 39.95885 -105.47072 24486 ft 383 kts 279°
2026-05-06 22:25 39.96156 -105.50557 24859 ft 388 kts 279°
2026-05-06 22:25 39.96429 -105.54064 25369 ft 391 kts 279°
2026-05-06 22:25 39.96702 -105.57619 25800 ft 395 kts 280°
2026-05-06 22:26 39.96975 -105.61199 26263 ft 399 kts 280°
2026-05-06 22:26 39.97249 -105.64807 26716 ft 402 kts 279°
2026-05-06 22:26 39.97441 -105.68475 27092 ft 408 kts 278°
2026-05-06 22:26 39.97621 -105.72176 27574 ft 410 kts 278°
2026-05-06 22:27 39.97808 -105.75908 28007 ft 413 kts 278°
2026-05-06 22:27 39.97993 -105.79613 28453 ft 416 kts 278°
2026-05-06 22:27 39.98183 -105.83390 28890 ft 419 kts 278°
2026-05-06 22:27 39.98372 -105.87188 29299 ft 422 kts 278°
2026-05-06 22:28 39.98562 -105.91031 29705 ft 425 kts 278°
2026-05-06 22:28 39.98751 -105.94882 30117 ft 427 kts 278°
2026-05-06 22:28 39.98941 -105.98765 30484 ft 430 kts 278°
2026-05-06 22:28 39.99129 -106.02659 30836 ft 432 kts 278°
2026-05-06 22:29 39.99318 -106.06578 31177 ft 434 kts 278°
2026-05-06 22:29 39.99507 -106.10525 31519 ft 436 kts 278°
2026-05-06 22:29 39.99695 -106.14485 31856 ft 438 kts 278°
2026-05-06 22:29 39.99883 -106.18472 32170 ft 440 kts 278°
2026-05-06 22:30 40.00067 -106.22410 32490 ft 442 kts 278°
2026-05-06 22:30 40.00253 -106.26415 32861 ft 443 kts 277°
2026-05-06 22:30 40.00438 -106.30429 33331 ft 442 kts 277°
2026-05-06 22:30 40.00621 -106.34419 33800 ft 440 kts 277°
2026-05-06 22:31 40.00802 -106.38409 34084 ft 442 kts 277°
2026-05-06 22:31 40.00982 -106.42408 34099 ft 439 kts 277°
2026-05-06 22:31 40.01335 -106.50334 34080 ft 437 kts 277°
2026-05-06 22:32 40.01682 -106.58254 34106 ft 437 kts 277°
2026-05-06 22:32 40.02024 -106.66167 34093 ft 436 kts 277°
2026-05-06 22:33 40.02360 -106.74071 34096 ft 436 kts 277°
2026-05-06 22:33 40.02690 -106.81979 34099 ft 436 kts 277°
2026-05-06 22:34 40.03015 -106.89873 34097 ft 435 kts 277°
2026-05-06 22:34 40.03332 -106.97710 34099 ft 435 kts 277°
2026-05-06 22:35 40.03695 -107.05602 34117 ft 435 kts 277°
2026-05-06 22:35 40.04062 -107.13472 34098 ft 434 kts 277°
2026-05-06 22:36 40.04423 -107.21350 34111 ft 435 kts 277°
2026-05-06 22:36 40.04779 -107.29230 34135 ft 435 kts 277°
2026-05-06 22:37 40.05129 -107.37103 34126 ft 435 kts 277°
2026-05-06 22:37 40.05470 -107.44893 34123 ft 435 kts 277°
2026-05-06 22:38 40.05810 -107.52780 34139 ft 435 kts 277°
2026-05-06 22:38 40.06145 -107.60678 34149 ft 435 kts 277°
2026-05-06 22:39 40.06474 -107.68569 34159 ft 435 kts 277°
2026-05-06 22:39 40.06796 -107.76414 34168 ft 435 kts 277°
2026-05-06 22:40 40.07116 -107.84322 34170 ft 436 kts 277°
2026-05-06 22:40 40.07429 -107.92223 34032 ft 436 kts 277°
2026-05-06 22:41 40.07737 -108.00115 33510 ft 435 kts 277°
2026-05-06 22:41 40.07889 -108.04057 33245 ft 435 kts 277°
2026-05-06 22:41 40.08039 -108.08007 32977 ft 434 kts 277°
2026-05-06 22:42 40.08188 -108.11948 32722 ft 434 kts 277°
2026-05-06 22:42 40.08333 -108.15831 32474 ft 433 kts 277°
2026-05-06 22:42 40.08479 -108.19752 32223 ft 432 kts 277°
2026-05-06 22:42 40.08624 -108.23669 32119 ft 432 kts 277°
2026-05-06 22:43 40.08767 -108.27588 32124 ft 432 kts 277°
2026-05-06 22:43 40.09049 -108.35450 32118 ft 433 kts 277°
2026-05-06 22:44 40.09326 -108.43309 32117 ft 434 kts 277°
2026-05-06 22:44 40.09598 -108.51134 32122 ft 434 kts 277°
2026-05-06 22:45 40.09865 -108.59023 32109 ft 435 kts 277°
2026-05-06 22:45 40.10127 -108.66924 32119 ft 436 kts 278°
2026-05-06 22:46 40.10385 -108.74847 32116 ft 437 kts 278°
2026-05-06 22:46 40.10638 -108.82778 32121 ft 438 kts 278°
2026-05-06 22:47 40.10915 -108.90738 32110 ft 438 kts 278°
2026-05-06 22:47 40.11217 -108.98689 32103 ft 439 kts 278°
2026-05-06 22:48 40.11513 -109.06670 32123 ft 440 kts 278°
2026-05-06 22:48 40.11800 -109.14608 32116 ft 441 kts 278°
2026-05-06 22:49 40.12085 -109.22612 32115 ft 442 kts 278°
2026-05-06 22:49 40.12365 -109.30634 32118 ft 442 kts 278°
2026-05-06 22:50 40.12640 -109.38683 32128 ft 443 kts 278°
2026-05-06 22:50 40.12910 -109.46744 32124 ft 444 kts 278°
2026-05-06 22:51 40.13175 -109.54823 32116 ft 446 kts 278°
2026-05-06 22:51 40.13435 -109.62925 32113 ft 446 kts 278°
2026-05-06 22:52 40.13688 -109.70982 32116 ft 447 kts 278°
2026-05-06 22:52 40.13938 -109.79102 32099 ft 447 kts 278°
2026-05-06 22:53 40.14182 -109.87231 32099 ft 447 kts 278°
2026-05-06 22:53 40.14420 -109.95371 32090 ft 448 kts 278°
2026-05-06 22:54 40.14654 -110.03513 32098 ft 448 kts 278°
2026-05-06 22:54 40.14879 -110.11660 32093 ft 449 kts 276°
2026-05-06 22:55 40.14798 -110.19853 32088 ft 451 kts 275°
2026-05-06 22:55 40.14732 -110.28012 32085 ft 451 kts 275°
2026-05-06 22:56 40.14665 -110.36289 32084 ft 458 kts 275°
2026-05-06 22:56 40.14592 -110.44628 32077 ft 459 kts 275°
2026-05-06 22:57 40.14514 -110.52969 32074 ft 459 kts 275°
2026-05-06 22:57 40.14429 -110.61332 32072 ft 460 kts 275°
2026-05-06 22:58 40.14339 -110.69689 32063 ft 460 kts 275°
2026-05-06 22:58 40.14243 -110.77990 32093 ft 461 kts 275°
2026-05-06 22:59 40.14139 -110.86370 32089 ft 461 kts 275°
2026-05-06 22:59 40.14030 -110.94760 32092 ft 463 kts 275°
2026-05-06 23:00 40.13914 -111.03179 32100 ft 463 kts 275°
2026-05-06 23:00 40.13793 -111.11594 32116 ft 464 kts 275°
2026-05-06 23:01 40.13667 -111.20030 32119 ft 464 kts 275°
2026-05-06 23:01 40.13524 -111.28472 32134 ft 464 kts 275°
2026-05-06 23:02 40.13378 -111.36859 32149 ft 465 kts 275°
2026-05-06 23:02 40.13226 -111.45194 32165 ft 443 kts 275°
2026-05-06 23:02 40.13152 -111.49145 32181 ft 427 kts 275°
2026-05-06 23:03 40.13131 -111.52981 32173 ft 417 kts 282°
2026-05-06 23:03 40.13613 -111.56644 32173 ft 402 kts 295°
2026-05-06 23:03 40.14671 -111.59970 32195 ft 393 kts 304°
2026-05-06 23:04 40.17114 -111.66372 31905 ft 396 kts 301°
2026-05-06 23:04 40.18459 -111.69425 31424 ft 380 kts 315°
2026-05-06 23:04 40.20011 -111.72209 30956 ft 383 kts 306°
2026-05-06 23:04 40.20782 -111.74311 30626 ft 388 kts 299°
2026-05-06 23:05 40.21788 -111.77593 29909 ft 389 kts 298°
2026-05-06 23:05 40.22811 -111.80899 28594 ft 395 kts 298°
2026-05-06 23:05 40.23890 -111.84228 27481 ft 397 kts 298°
2026-05-06 23:05 40.25003 -111.87531 26476 ft 396 kts 298°
2026-05-06 23:06 40.26150 -111.90814 25514 ft 395 kts 298°
2026-05-06 23:06 40.27318 -111.94053 24576 ft 393 kts 298°
2026-05-06 23:06 40.28513 -111.97265 23671 ft 391 kts 298°
2026-05-06 23:06 40.29551 -112.00557 22592 ft 393 kts 285°
2026-05-06 23:07 40.29632 -112.04124 21557 ft 398 kts 262°
2026-05-06 23:07 40.28623 -112.07507 20527 ft 403 kts 239°
2026-05-06 23:07 40.26706 -112.10114 19534 ft 408 kts 216°
2026-05-06 23:07 40.24131 -112.11607 18549 ft 412 kts 193°
2026-05-06 23:08 40.21284 -112.11713 17445 ft 412 kts 169°
2026-05-06 23:08 40.18632 -112.10402 16360 ft 408 kts 146°
2026-05-06 23:08 40.16591 -112.07886 15321 ft 401 kts 123°
2026-05-06 23:08 40.15499 -112.04605 14403 ft 392 kts 97°
2026-05-06 23:09 40.15592 -112.01197 14181 ft 361 kts 73°
2026-05-06 23:09 40.16549 -111.98354 14146 ft 327 kts 49°
2026-05-06 23:09 40.18192 -111.96500 13923 ft 304 kts 28°
2026-05-06 23:09 40.20000 -111.95126 13492 ft 297 kts 27°
2026-05-06 23:10 40.21809 -111.93799 13013 ft 298 kts 22°
2026-05-06 23:10 40.23765 -111.92831 12470 ft 303 kts 17°
2026-05-06 23:10 40.25779 -111.91938 11924 ft 309 kts 17°
2026-05-06 23:10 40.27807 -111.91042 11387 ft 313 kts 17°
2026-05-06 23:11 40.29881 -111.90121 10865 ft 317 kts 17°
2026-05-06 23:11 40.31987 -111.89187 10346 ft 320 kts 17°
2026-05-06 23:11 40.34110 -111.88240 9795 ft 323 kts 17°
2026-05-06 23:11 40.36201 -111.87307 9736 ft 310 kts 16°
2026-05-06 23:12 40.38192 -111.86402 9738 ft 296 kts 16°
2026-05-06 23:12 40.40176 -111.85765 9709 ft 298 kts
2026-05-06 23:12 40.42296 -111.86237 9656 ft 322 kts 338°
2026-05-06 23:12 40.44165 -111.87616 9654 ft 295 kts 326°
2026-05-06 23:13 40.45825 -111.88978 9686 ft 271 kts 328°
2026-05-06 23:13 40.47355 -111.90198 9679 ft 250 kts 328°
2026-05-06 23:13 40.48796 -111.91334 9525 ft 234 kts 329°
2026-05-06 23:13 40.50163 -111.92402 9271 ft 225 kts 329°
2026-05-06 23:14 40.51500 -111.93440 8923 ft 222 kts 330°
2026-05-06 23:14 40.52886 -111.94286 8551 ft 220 kts 342°
2026-05-06 23:14 40.54009 -111.94590 8288 ft 218 kts 352°
2026-05-06 23:14 40.55238 -111.94754 8139 ft 209 kts 354°
2026-05-06 23:15 40.56648 -111.94910 8037 ft 197 kts 353°
2026-05-06 23:15 40.58002 -111.95062 8014 ft 194 kts 353°
2026-05-06 23:15 40.59321 -111.95213 7953 ft 183 kts 353°
2026-05-06 23:15 40.60544 -111.95354 7767 ft 174 kts 353°
2026-05-06 23:16 40.61744 -111.95493 7561 ft 173 kts 353°
2026-05-06 23:16 40.62942 -111.95631 7329 ft 172 kts 354°
2026-05-06 23:16 40.64131 -111.95769 7119 ft 172 kts 353°
2026-05-06 23:16 40.65326 -111.95907 6831 ft 172 kts 353°
2026-05-06 23:17 40.66521 -111.96045 6545 ft 172 kts 353°
2026-05-06 23:17 40.67713 -111.96183 6254 ft 172 kts 353°
2026-05-06 23:17 40.68903 -111.96320 5986 ft 171 kts 352°
2026-05-06 23:17 40.70036 -111.96448 5761 ft 156 kts 353°
2026-05-06 23:18 40.71099 -111.96574 5563 ft 151 kts 352°
2026-05-06 23:18 40.72138 -111.96697 5389 ft 149 kts 352°
2026-05-06 23:18 40.73118 -111.96816 5180 ft 146 kts 352°
2026-05-06 23:18 40.74130 -111.96915 4978 ft 145 kts 351°
2026-05-06 23:19 40.75132 -111.97041 4782 ft 145 kts 349°
2026-05-06 23:19 40.76137 -111.97158 4599 ft 143 kts 351°
2026-05-06 23:19 40.77108 -111.97276 4334 ft 137 kts 353°
2026-05-06 23:19 40.77993 -111.97381 4234 ft 123 kts 355°
2026-05-06 23:20 40.78642 -111.97456 4233 ft 66 kts 355°
2026-05-06 23:20 40.79078 -111.97519 4234 ft 50 kts 341°
2026-05-06 23:20 40.79211 -111.97634 4233 ft 12 kts 292°
2026-05-06 23:20 40.79191 -111.97719 4233 ft 10 kts 207°
2026-05-06 23:21 40.79117 -111.97723 4233 ft 7 kts 174°
2026-05-06 23:21 40.79101 -111.97721 4233 ft 10 kts 175°
2026-05-06 23:21 40.78963 -111.97704 4234 ft 25 kts 174°
2026-05-06 23:21 40.78837 -111.97772 4233 ft 20 kts 259°
2026-05-06 23:22 40.78816 -111.97956 4233 ft 20 kts 262°
2026-05-06 23:22 40.78803 -111.98123 4233 ft 15 kts 264°
2026-05-06 23:22 40.78802 -111.98202 4233 ft 1 kts 321°
2026-05-06 23:22 40.78809 -111.98204 4233 ft 3 kts 347°
2026-05-06 23:23 40.78841 -111.98209 4233 ft 5 kts 356°
2026-05-06 23:23 40.78860 -111.98210 4233 ft 2 kts 355°
2026-05-06 23:23 40.78869 -111.98211 4233 ft 1 kts 355°
2026-05-06 23:23 40.78872 -111.98212 4233 ft 0 kts 355°